SCP
0 0 0 0 0 0 0 0 0 0 0 0 0 0 0 0 0 0 0 0 0 0 0 0 0 0 0 0 0 0 0 0 0 0 0 0 0 0 0 0 0 0 0 0
0 0 0 0 0 0 0 0 0 0 0 0 0 0 0 0 0 0 0 0 0 0 0 0 0 0 0 0 0 0 0 0 0 0 0 0 0 0 0 0 0 0 0 0
0 0 0 0 0 0 0 0 0 0 0 0 0 0 0 0 0 0 0 0 0 0 0 0 0 0 0 0 0 0 0 0 0 0 0 0 0 0 0 0 0 0 0 0
0 0 0 0 0 0 0 0 0 0 0 0 0 0 0 0 0 0 0 0 0 0 0 0 0 0 0 0 0 0 0 0 0 0 0 0 0 0 0 0 0 0 0 0
0 0 0 0 0 0 0 0 0 0 0 0 0 0 0 0 0 0 0 0 0 0 0 0 0 0 0 0 0 0 0 0 0 0 0 0 0 0 0 0 0 0 0 0
0 0 0 0 0 0 0 0 0 0 0 0 0 0 0 0 0 0 0 0 0 0 0 0 0 0 0 0 0 0 0 0 0 0 0 0 0 0 0 0 0 0 0 0
0 0 0 0 0 0 0 0 0 0 0 0 0 0 0 0 0 0 0 0 0 0 0 0 0 0 0 0 0 0 0 0 0 0 0 0 0 0 0 0 0 0 0 0
0 0 0 0 0 0 0 0 0 0 0 0 0 0 0 0 0 0 0 0 0 0 0 0 0 0 0 0 0 0 0 0 0 0 0 0 0 0 0 0 0 0 0 0
0 0 0 0 0 0 0 0 0 0 0 0 0 0 0 0 0 0 0 0 0 0 0 0 0 0 0 0 0 0 0 0 0 0 0 0 0 0 0 0 0 0 0 0
0 0 0 0 0 0 0 0 0 0 0 0 0 0 0 0 0 0 0 0 0 0 0 0 0 0 0 0 0 0 0 0 0 0 0 0 0 0 0 0 0 0 0 0
0 0 0 0 0 0 0 0 0 0 0 0 0 0 0 0 0 0 0 0 0 0 0 0 0 0 0 0 0 0 0 0 0 0 0 0 0 0 0 0 0 0 0 0
0 0 0 0 0 0 0 0 0 0 0 0 0 0 0 0 0 0 0 0 0 0 0 0 0 0 0 0 0 0 0 0 0 0 0 0 0 0 0 0 0 0 0 0
0 0 0 0 0 0 0 0 0 0 0 0 0 0 0 0 0 0 0 0 0 0 0 0 0 0 0 0 0 0 0 0 0 0 0 0 0 0 0 0 0 0 0 0
0 0 0 0 0 0 0 0 0 0 0 0 0 0 0 0 0 0 0 0 0 0 0 0 0 0 0 0 0 0 0 0 0 0 0 0 0 0 0 0 0 0 0 0
0 0 0 0 0 0 0 0 0 0 0 0 0 0 0 0 0 0 0 0 0 0 0 0 0 0 0 0 0 0 0 0 0 0 0 0 0 0 0 0 0 0 0 0
0 0 0 0 0 0 0 0 0 0 0 0 0 0 0 0 0 0 0 0 0 0 0 0 0 0 0 0 0 0 0 0 0 0 0 0 0 0 0 0 0 0 0 0
0 0 0 0 0 0 0 0 0 0 0 0 0 0 0 0 0 0 0 0 0 0 0 0 0 0 0 0 0 0 0 0 0 0 0 0 0 0 0 0 0 0 0 0
0 0 0 0 0 0 0 0 0 0 0 0 0 0 0 0 0 0 0 0 0 0 0 0 0 0 0 0 0 0 0 0 0 0 0 0 0 0 0 0 0 0 0 0
0 0 0 0 0 0 0 0 0 0 0 0 0 0 0 0 0 0 0 0 0 0 0 0 0 0 0 0 0 0 0 0 0 0 0 0 0 0 0 0 0 0 0 0
0 0 0 0 0 0 0 0 0 0 0 0 0 0 0 0 0 0 0 0 0 0 0 0 0 0 0 0 0 0 0 0 0 0 0 0 0 0 0 0 0 0 0 0
0 0 0 0 0 0 0 0 0 0 0 0 0 0 0 0 0 0 0 0 0 0 0 0 0 0 0 0 0 0 0 0 0 0 0 0 0 0 0 0 0 0 0 0
0 0 0 0 0 0 0 0 0 0 0 0 0 0 0 0 0 0 0 0 0 0 0 0 0 0 0 0 0 0 0 0 0 0 0 0 0 0 0 0 0 0 0 0
0 0 0 0 0 0 0 0 0 0 0 0 0 0 0 0 0 0 0 0 0 0 0 0 0 0 0 0 0 0 0 0 0 0 0 0 0 0 0 0 0 0 0 0
0 0 0 0 0 0 0 0 0 0 0 0 0 0 0 0 0 0 0 0 0 0 0 0 0 0 0 0 0 0 0 0 0 0 0 0 0 0 0 0 0 0 0 0
0 0 0 0 0 0 0 0 0 0 0 0 0 0 0 0 0 0 0 0 0 0 0 0 0 0 0 0 0 0 0 0 0 0 0 0 0 0 0 0 0 0 0 0
0 0 0 0 0 0 0 0 0 0 0 0 0 0 0 0 0 0 0 0 0 0 0 0 0 0 0 0 0 0 0 0 0 0 0 0 0 0 0 0 0 0 0 0
Wind_Speed_500mb
9 7 16 20 14 8 13 9 10 3 5 8 11 15 21 30 31 35 35 41 45 46 38 37 32 28 26 27 25 20 18 19 17 12 10 10 9 10 11 12 14 15 17 17
8 14 11 10 9 5 7 10 6 2 4 6 2 20 20 17 24 47 47 43 46 50 49 47 42 36 30 26 27 24 22 20 18 15 8 8 9 10 11 12 13 14 15 14
15 6 20 13 9 10 7 10 8 5 6 2 5 16 9 2 8 21 37 39 32 45 56 56 52 43 33 29 28 26 24 22 19 15 11 11 12 11 11 12 11 12 12 12
9 4 16 10 11 12 11 7 12 14 7 5 5 8 9 4 2 7 16 24 25 26 51 58 56 48 36 27 27 29 28 24 21 18 15 15 14 11 10 12 11 11 11 10
12 12 16 10 10 11 9 12 13 9 9 6 3 6 13 1 9 9 12 18 16 15 34 52 57 46 34 29 28 31 30 25 24 22 21 16 14 13 13 13 11 10 10 9
5 4 4 7 6 2 19 14 17 10 7 3 7 11 10 10 12 9 14 20 15 15 21 39 48 44 37 32 30 32 32 27 25 24 23 19 16 16 15 13 12 11 10 9
9 7 5 3 12 10 9 12 5 6 4 11 1 7 15 10 9 18 28 22 16 17 21 33 47 51 43 35 31 32 33 31 28 25 23 19 16 17 16 14 13 11 10 10
14 5 15 6 6 15 9 13 11 16 9 7 3 12 11 6 3 15 22 21 18 16 19 29 39 42 38 33 29 31 33 31 28 25 22 19 17 17 17 15 14 13 11 10
12 6 4 6 2 4 12 9 9 13 5 5 7 10 7 5 4 14 22 22 20 18 19 27 34 35 33 31 29 27 32 32 29 26 23 21 19 18 17 16 15 14 12 11
17 8 2 1 1 2 5 8 7 4 8 7 9 8 10 14 19 14 17 26 22 20 22 26 30 33 32 28 27 28 32 30 27 26 24 21 18 17 17 16 15 15 14 12
11 9 2 6 12 17 6 7 3 8 9 10 7 11 9 18 22 22 30 28 24 20 19 22 25 29 29 30 31 30 36 35 32 29 26 23 19 18 18 18 17 17 15 15
8 11 9 8 4 1 2 12 12 10 10 5 5 10 3 13 28 38 38 28 20 16 16 18 22 26 33 33 32 33 39 37 32 28 27 25 23 20 19 18 18 17 18 18
18 5 9 6 5 4 9 10 6 8 5 14 12 9 9 10 28 43 38 28 22 18 17 20 22 25 28 31 30 33 38 37 35 32 30 29 25 22 19 18 18 19 20 20
17 8 12 21 8 14 14 13 13 10 7 11 12 9 4 11 22 33 34 29 23 17 15 16 18 19 22 25 27 31 35 37 37 35 32 29 25 23 22 21 20 21 22 21
9 11 8 7 8 8 8 23 33 27 24 18 17 18 20 27 29 46 43 33 27 22 16 14 13 15 19 25 29 31 31 35 37 36 34 29 27 27 26 25 23 24 23 23
5 2 9 4 3 5 4 15 23 27 7 12 11 10 14 38 32 46 45 41 34 26 17 13 11 15 18 21 26 29 30 32 34 36 34 31 31 30 29 28 27 25 25 25
11 12 15 11 2 10 13 18 20 14 11 26 23 13 14 18 34 49 55 46 39 29 19 14 12 14 17 19 22 26 26 26 28 30 31 33 32 32 31 31 30 28 27 27
12 9 5 6 10 9 7 2 14 15 15 14 10 14 34 40 34 39 39 37 30 22 19 18 17 19 18 19 21 22 25 24 22 22 26 30 33 33 33 34 33 32 32 30
8 9 7 10 9 8 4 9 15 19 19 20 17 14 24 48 46 19 29 31 26 22 20 17 16 16 16 18 20 22 22 21 19 18 19 21 26 30 34 36 34 34 34 33
6 4 6 6 10 13 11 4 12 9 7 22 33 32 39 41 13 8 32 28 25 19 18 18 17 17 17 19 20 20 19 18 15 14 14 18 21 25 31 33 34 34 35 34
9 5 12 6 3 10 10 7 14 12 8 14 41 47 60 17 13 43 42 32 24 22 24 24 24 23 24 22 21 20 19 17 15 15 14 14 16 19 23 29 35 36 37 37
10 11 6 5 5 11 12 7 16 6 12 15 29 38 43 33 49 53 41 36 34 34 34 31 30 29 28 26 23 20 18 14 11 8 7 7 9 12 18 24 30 37 40 42
3 7 10 10 7 3 5 5 8 9 19 21 34 46 56 58 60 56 51 46 42 39 39 37 33 32 29 25 23 19 16 12 9 9 6 3 3 6 11 17 22 31 38 45
3 4 6 8 3 4 8 12 15 16 18 23 37 53 58 68 63 59 52 47 42 37 34 31 29 27 25 21 18 15 13 10 8 7 5 2 3 6 11 14 18 24 29 36
5 11 10 6 4 14 12 26 30 32 32 42 49 57 63 65 58 56 49 42 36 30 25 21 18 16 12 10 7 8 9 10 11 12 15 15 15 16 17 20 22 26 27 29
8 10 8 7 33 9 23 42 40 47 53 56 64 62 56 58 57 48 42 34 28 22 15 12 11 8 7 8 13 20 24 26 26 26 27 27 28 30 30 30 31 33 32 33
Wind_Direction_500mb
173 123 197 192 167 165 141 146 163 143 165 152 231 269 263 245 233 232 224 216 215 216 215 219 220 218 221 218 214 203 197 190 187 183 176 160 145 125 120 111 101 95 88 81
73 230 206 169 185 166 145 150 174 41 126 124 5 268 261 248 234 227 220 219 221 214 209 208 212 218 224 226 216 206 199 202 197 197 194 170 164 149 139 125 112 103 96 92
159 214 161 156 172 191 207 163 170 144 150 186 337 299 326 336 239 237 231 232 228 222 213 210 209 214 219 221 218 210 204 207 207 209 206 191 184 175 152 133 120 115 105 99
173 133 148 150 193 146 197 165 134 129 102 212 98 269 299 251 137 99 146 178 196 214 216 214 209 209 215 217 214 211 210 208 210 212 208 199 201 189 164 144 139 129 118 109
200 158 152 158 190 155 208 120 127 108 91 61 217 79 267 282 228 187 184 179 189 201 211 212 212 211 210 215 219 215 211 208 211 211 210 213 211 197 182 165 153 143 135 120
90 63 29 151 92 115 147 78 48 53 83 351 222 142 274 201 210 161 199 200 211 217 202 210 212 208 208 211 217 216 213 213 215 213 214 218 217 205 193 182 172 163 152 142
22 328 309 161 84 27 88 91 24 4 6 222 271 99 243 244 217 187 189 194 200 203 200 199 202 203 208 213 215 213 213 215 216 214 212 214 210 201 196 194 185 180 171 155
147 234 178 166 180 174 176 154 157 194 192 222 114 219 255 278 102 170 172 171 170 177 183 194 198 205 212 214 212 213 215 214 214 210 208 208 203 201 200 199 198 193 182 171
139 221 13 54 23 120 182 182 159 104 1 54 207 271 278 159 165 163 169 169 168 173 177 188 198 208 213 213 214 215 214 212 209 205 203 205 204 202 204 208 203 199 194 189
193 99 20 32 93 10 140 164 83 357 132 229 257 270 235 207 209 199 186 188 179 178 184 193 205 209 211 215 218 217 211 215 211 206 203 207 209 208 209 210 209 204 202 199
135 101 232 133 203 174 157 180 153 129 160 168 174 252 214 208 195 183 191 189 184 188 191 195 204 209 213 217 222 219 210 209 209 207 208 210 213 215 213 212 211 210 208 204
178 113 139 193 251 201 281 204 167 148 207 223 151 262 335 236 187 179 180 185 185 193 202 200 202 206 209 215 219 216 211 212 211 212 213 214 216 218 218 218 217 214 212 211
181 169 101 24 347 357 209 207 211 122 90 190 152 245 355 118 154 180 174 180 185 189 194 200 199 206 210 211 215 216 213 212 214 214 214 215 217 220 221 221 221 219 218 216
139 132 177 191 172 137 186 196 197 166 164 163 211 178 225 157 160 169 177 182 188 194 198 201 202 205 211 214 218 218 215 215 218 218 218 219 221 223 223 223 222 222 222 219
122 135 104 50 107 123 168 191 195 205 203 193 188 181 196 190 180 177 179 180 185 192 193 203 213 220 218 216 216 216 217 220 220 220 221 221 221 224 225 226 226 227 226 225
35 178 101 37 22 151 233 216 205 215 193 258 164 211 191 189 167 169 182 183 187 189 189 193 208 225 227 225 220 218 217 219 221 223 224 223 224 227 230 231 233 233 232 230
125 139 155 201 143 72 295 202 189 195 193 200 204 196 148 161 183 176 187 189 189 184 189 205 221 235 233 228 223 220 218 218 222 225 226 227 228 229 231 233 236 237 238 237
133 110 89 134 132 202 267 71 177 178 220 195 133 163 171 176 162 179 188 187 188 185 203 219 227 232 230 217 209 202 208 214 218 219 222 227 230 230 230 233 236 237 238 240
356 105 128 162 179 287 327 187 160 175 237 192 157 128 126 145 148 142 174 185 193 196 207 219 220 212 202 195 191 191 195 199 206 213 222 229 233 234 235 237 239 241 241 242
64 96 107 137 150 198 228 164 174 129 279 176 155 154 152 154 151 179 179 185 186 190 193 189 180 175 172 169 170 172 175 180 184 195 208 221 230 232 234 237 240 243 244 245
125 115 178 171 191 289 248 161 145 117 234 150 183 170 163 164 196 167 168 166 172 172 170 165 158 156 148 142 145 150 152 151 160 174 192 211 223 230 235 236 238 241 244 246
147 149 169 106 96 256 163 119 168 191 127 146 167 172 158 142 141 149 153 151 151 152 153 152 151 143 135 133 133 136 135 136 140 152 178 198 212 224 234 240 241 243 245 246
209 177 175 179 198 313 26 28 130 149 139 148 163 169 167 149 147 149 145 144 142 140 137 133 137 134 131 130 129 126 120 113 109 116 133 166 237 236 238 247 251 251 250 249
247 202 105 132 7 18 77 109 133 144 150 154 158 157 160 148 147 143 141 138 137 135 135 132 130 126 120 113 104 95 87 73 49 28 10 343 291 284 272 258 258 262 262 262
191 139 126 79 30 96 115 138 136 129 132 140 145 149 147 145 143 142 140 138 135 132 129 127 123 109 100 88 60 32 7 344 331 326 323 320 313 304 291 285 275 270 269 268
191 161 165 204 179 137 165 152 150 143 141 143 143 139 140 146 141 143 135 133 132 126 123 126 125 106 79 48 8 348 337 328 322 317 312 307 303 298 294 291 285 282 279 272
Wind_Speed_850mb
9 7 16 20 14 8 13 9 10 3 5 8 11 15 21 30 31 35 35 41 45 46 38 37 32 28 26 27 25 20 18 19 17 12 10 10 9 10 11 12 14 15 17 17
8 14 11 10 9 5 7 10 6 2 4 6 2 20 20 17 24 47 47 43 46 50 49 47 42 36 30 26 27 24 22 20 18 15 8 8 9 10 11 12 13 14 15 14
15 6 20 13 9 10 7 10 8 5 6 2 5 16 9 2 8 21 37 39 32 45 56 56 52 43 33 29 28 26 24 22 19 15 11 11 12 11 11 12 11 12 12 12
9 4 16 10 11 12 11 7 12 14 7 5 5 8 9 4 2 7 16 24 25 26 51 58 56 48 36 27 27 29 28 24 21 18 15 15 14 11 10 12 11 11 11 10
12 12 16 10 10 11 9 12 13 9 9 6 3 6 13 1 9 9 12 18 16 15 34 52 57 46 34 29 28 31 30 25 24 22 21 16 14 13 13 13 11 10 10 9
5 4 4 7 6 2 19 14 17 10 7 3 7 11 10 10 12 9 14 20 15 15 21 39 48 44 37 32 30 32 32 27 25 24 23 19 16 16 15 13 12 11 10 9
9 7 5 3 12 10 9 12 5 6 4 11 1 7 15 10 9 18 28 22 16 17 21 33 47 51 43 35 31 32 33 31 28 25 23 19 16 17 16 14 13 11 10 10
14 5 15 6 6 15 9 13 11 16 9 7 3 12 11 6 3 15 22 21 18 16 19 29 39 42 38 33 29 31 33 31 28 25 22 19 17 17 17 15 14 13 11 10
12 6 4 6 2 4 12 9 9 13 5 5 7 10 7 5 4 14 22 22 20 18 19 27 34 35 33 31 29 27 32 32 29 26 23 21 19 18 17 16 15 14 12 11
17 8 2 1 1 2 5 8 7 4 8 7 9 8 10 14 19 14 17 26 22 20 22 26 30 33 32 28 27 28 32 30 27 26 24 21 18 17 17 16 15 15 14 12
11 9 2 6 12 17 6 7 3 8 9 10 7 11 9 18 22 22 30 28 24 20 19 22 25 29 29 30 31 30 36 35 32 29 26 23 19 18 18 18 17 17 15 15
8 11 9 8 4 1 2 12 12 10 10 5 5 10 3 13 28 38 38 28 20 16 16 18 22 26 33 33 32 33 39 37 32 28 27 25 23 20 19 18 18 17 18 18
18 5 9 6 5 4 9 10 6 8 5 14 12 9 9 10 28 43 38 28 22 18 17 20 22 25 28 31 30 33 38 37 35 32 30 29 25 22 19 18 18 19 20 20
17 8 12 21 8 14 14 13 13 10 7 11 12 9 4 11 22 33 34 29 23 17 15 16 18 19 22 25 27 31 35 37 37 35 32 29 25 23 22 21 20 21 22 21
9 11 8 7 8 8 8 23 33 27 24 18 17 18 20 27 29 46 43 33 27 22 16 14 13 15 19 25 29 31 31 35 37 36 34 29 27 27 26 25 23 24 23 23
5 2 9 4 3 5 4 15 23 27 7 12 11 10 14 38 32 46 45 41 34 26 17 13 11 15 18 21 26 29 30 32 34 36 34 31 31 30 29 28 27 25 25 25
11 12 15 11 2 10 13 18 20 14 11 26 23 13 14 18 34 49 55 46 39 29 19 14 12 14 17 19 22 26 26 26 28 30 31 33 32 32 31 31 30 28 27 27
12 9 5 6 10 9 7 2 14 15 15 14 10 14 34 40 34 39 39 37 30 22 19 18 17 19 18 19 21 22 25 24 22 22 26 30 33 33 33 34 33 32 32 30
8 9 7 10 9 8 4 9 15 19 19 20 17 14 24 48 46 19 29 31 26 22 20 17 16 16 16 18 20 22 22 21 19 18 19 21 26 30 34 36 34 34 34 33
6 4 6 6 10 13 11 4 12 9 7 22 33 32 39 41 13 8 32 28 25 19 18 18 17 17 17 19 20 20 19 18 15 14 14 18 21 25 31 33 34 34 35 34
9 5 12 6 3 10 10 7 14 12 8 14 41 47 60 17 13 43 42 32 24 22 24 24 24 23 24 22 21 20 19 17 15 15 14 14 16 19 23 29 35 36 37 37
10 11 6 5 5 11 12 7 16 6 12 15 29 38 43 33 49 53 41 36 34 34 34 31 30 29 28 26 23 20 18 14 11 8 7 7 9 12 18 24 30 37 40 42
3 7 10 10 7 3 5 5 8 9 19 21 34 46 56 58 60 56 51 46 42 39 39 37 33 32 29 25 23 19 16 12 9 9 6 3 3 6 11 17 22 31 38 45
3 4 6 8 3 4 8 12 15 16 18 23 37 53 58 68 63 59 52 47 42 37 34 31 29 27 25 21 18 15 13 10 8 7 5 2 3 6 11 14 18 24 29 36
5 11 10 6 4 14 12 26 30 32 32 42 49 57 63 65 58 56 49 42 36 30 25 21 18 16 12 10 7 8 9 10 11 12 15 15 15 16 17 20 22 26 27 29
8 10 8 7 33 9 23 42 40 47 53 56 64 62 56 58 57 48 42 34 28 22 15 12 11 8 7 8 13 20 24 26 26 26 27 27 28 30 30 30 31 33 32 33
Wind_Direction_850mb
173 123 197 192 167 165 141 146 163 143 165 152 231 269 263 245 233 232 224 216 215 216 215 219 220 218 221 218 214 203 197 190 187 183 176 160 145 125 120 111 101 95 88 81
73 230 206 169 185 166 145 150 174 41 126 124 5 268 261 248 234 227 220 219 221 214 209 208 212 218 224 226 216 206 199 202 197 197 194 170 164 149 139 125 112 103 96 92
159 214 161 156 172 191 207 163 170 144 150 186 337 299 326 336 239 237 231 232 228 222 213 210 209 214 219 221 218 210 204 207 207 209 206 191 184 175 152 133 120 115 105 99
173 133 148 150 193 146 197 165 134 129 102 212 98 269 299 251 137 99 146 178 196 214 216 214 209 209 215 217 214 211 210 208 210 212 208 199 201 189 164 144 139 129 118 109
200 158 152 158 190 155 208 120 127 108 91 61 217 79 267 282 228 187 184 179 189 201 211 212 212 211 210 215 219 215 211 208 211 211 210 213 211 197 182 165 153 143 135 120
90 63 29 151 92 115 147 78 48 53 83 351 222 142 274 201 210 161 199 200 211 217 202 210 212 208 208 211 217 216 213 213 215 213 214 218 217 205 193 182 172 163 152 142
22 328 309 161 84 27 88 91 24 4 6 222 271 99 243 244 217 187 189 194 200 203 200 199 202 203 208 213 215 213 213 215 216 214 212 214 210 201 196 194 185 180 171 155
147 234 178 166 180 174 176 154 157 194 192 222 114 219 255 278 102 170 172 171 170 177 183 194 198 205 212 214 212 213 215 214 214 210 208 208 203 201 200 199 198 193 182 171
139 221 13 54 23 120 182 182 159 104 1 54 207 271 278 159 165 163 169 169 168 173 177 188 198 208 213 213 214 215 214 212 209 205 203 205 204 202 204 208 203 199 194 189
193 99 20 32 93 10 140 164 83 357 132 229 257 270 235 207 209 199 186 188 179 178 184 193 205 209 211 215 218 217 211 215 211 206 203 207 209 208 209 210 209 204 202 199
135 101 232 133 203 174 157 180 153 129 160 168 174 252 214 208 195 183 191 189 184 188 191 195 204 209 213 217 222 219 210 209 209 207 208 210 213 215 213 212 211 210 208 204
178 113 139 193 251 201 281 204 167 148 207 223 151 262 335 236 187 179 180 185 185 193 202 200 202 206 209 215 219 216 211 212 211 212 213 214 216 218 218 218 217 214 212 211
181 169 101 24 347 357 209 207 211 122 90 190 152 245 355 118 154 180 174 180 185 189 194 200 199 206 210 211 215 216 213 212 214 214 214 215 217 220 221 221 221 219 218 216
139 132 177 191 172 137 186 196 197 166 164 163 211 178 225 157 160 169 177 182 188 194 198 201 202 205 211 214 218 218 215 215 218 218 218 219 221 223 223 223 222 222 222 219
122 135 104 50 107 123 168 191 195 205 203 193 188 181 196 190 180 177 179 180 185 192 193 203 213 220 218 216 216 216 217 220 220 220 221 221 221 224 225 226 226 227 226 225
35 178 101 37 22 151 233 216 205 215 193 258 164 211 191 189 167 169 182 183 187 189 189 193 208 225 227 225 220 218 217 219 221 223 224 223 224 227 230 231 233 233 232 230
125 139 155 201 143 72 295 202 189 195 193 200 204 196 148 161 183 176 187 189 189 184 189 205 221 235 233 228 223 220 218 218 222 225 226 227 228 229 231 233 236 237 238 237
133 110 89 134 132 202 267 71 177 178 220 195 133 163 171 176 162 179 188 187 188 185 203 219 227 232 230 217 209 202 208 214 218 219 222 227 230 230 230 233 236 237 238 240
356 105 128 162 179 287 327 187 160 175 237 192 157 128 126 145 148 142 174 185 193 196 207 219 220 212 202 195 191 191 195 199 206 213 222 229 233 234 235 237 239 241 241 242
64 96 107 137 150 198 228 164 174 129 279 176 155 154 152 154 151 179 179 185 186 190 193 189 180 175 172 169 170 172 175 180 184 195 208 221 230 232 234 237 240 243 244 245
125 115 178 171 191 289 248 161 145 117 234 150 183 170 163 164 196 167 168 166 172 172 170 165 158 156 148 142 145 150 152 151 160 174 192 211 223 230 235 236 238 241 244 246
147 149 169 106 96 256 163 119 168 191 127 146 167 172 158 142 141 149 153 151 151 152 153 152 151 143 135 133 133 136 135 136 140 152 178 198 212 224 234 240 241 243 245 246
209 177 175 179 198 313 26 28 130 149 139 148 163 169 167 149 147 149 145 144 142 140 137 133 137 134 131 130 129 126 120 113 109 116 133 166 237 236 238 247 251 251 250 249
247 202 105 132 7 18 77 109 133 144 150 154 158 157 160 148 147 143 141 138 137 135 135 132 130 126 120 113 104 95 87 73 49 28 10 343 291 284 272 258 258 262 262 262
191 139 126 79 30 96 115 138 136 129 132 140 145 149 147 145 143 142 140 138 135 132 129 127 123 109 100 88 60 32 7 344 331 326 323 320 313 304 291 285 275 270 269 268
191 161 165 204 179 137 165 152 150 143 141 143 143 139 140 146 141 143 135 133 132 126 123 126 125 106 79 48 8 348 337 328 322 317 312 307 303 298 294 291 285 282 279 272